This is the latest recevied weather packets stored in our database for station/object K5YNC. If no packets are shown the sender has not sent any weather packets the latest 10 day(s).
| Time | Temp. | Humidity | Pressure | Rain* | Wind** | Luminosity | Snow |
|---|---|---|---|---|---|---|---|
| 1778097478 | 16.67° C | 66% | 1016.8 hPa | 0 mm | - | 577 W/m² | - |
| 1778097175 | 17.22° C | 63% | 1016.8 hPa | 0 mm | - | 524 W/m² | - |
| 1778096872 | 16.67° C | 64% | 1016.8 hPa | 0 mm | - | 466 W/m² | - |
| 1778096568 | 16.11° C | 65% | 1016.7 hPa | 0 mm | - | 472 W/m² | - |
| 1778096266 | 16.11° C | 66% | 1016.5 hPa | 0 mm | - | 295 W/m² | - |
| 1778095962 | 16.67° C | 65% | 1016.3 hPa | 0 mm | - | 320 W/m² | - |
| 1778095658 | 16.67° C | 64% | 1016.3 hPa | 0 mm | - | 313 W/m² | - |
| 1778095356 | 16.67° C | 64% | 1016.2 hPa | 0 mm | - | 772 W/m² | - |
| 1778095052 | 16.67° C | 63% | 1016.4 hPa | 0 mm | - | 554 W/m² | - |
| 1778094749 | 16.11° C | 64% | 1016.4 hPa | 0 mm | - | 597 W/m² | - |
| 1778094446 | 16.11° C | 63% | 1016.7 hPa | 0 mm | - | 639 W/m² | - |
| 1778094142 | 16.67° C | 64% | 1016.6 hPa | 0 mm | - | 307 W/m² | - |
| 1778093840 | 16.67° C | 63% | 1016.6 hPa | 0 mm | - | 870 W/m² | - |
| 1778093536 | 16.11° C | 64% | 1016.8 hPa | 0 mm | - | 457 W/m² | - |
| 1778093234 | 16.11° C | 65% | 1016.6 hPa | 0 mm | - | 742 W/m² | - |
| 1778092931 | 15.56° C | 64% | 1016.4 hPa | 0 mm | - | 357 W/m² | - |
| 1778092627 | 15.56° C | 65% | 1016.8 hPa | 0 mm | - | 785 W/m² | - |
| 1778092323 | 15.56° C | 66% | 1016.6 hPa | 0 mm | - | 839 W/m² | - |
| 1778092021 | 15° C | 68% | 1016.6 hPa | 0 mm | - | 410 W/m² | - |
| 1778091718 | 15° C | 67% | 1016.9 hPa | 0 mm | - | 320 W/m² | - |
| 1778091415 | 15° C | 67% | 1017.3 hPa | 0 mm | - | 415 W/m² | - |
| 1778091112 | 15° C | 67% | 1017.1 hPa | 0 mm | - | 449 W/m² | - |
| 1778090810 | 14.44° C | 67% | 1017.1 hPa | 0 mm | - | 311 W/m² | - |
| 1778090506 | 15° C | 67% | 1017.4 hPa | 0 mm | - | 336 W/m² | - |
| 1778090202 | 15° C | 66% | 1017.2 hPa | 0 mm | - | 516 W/m² | - |
* Rain latest hour (hover to see other rain measurements)
** Current wind speed in m/s (hover to see current wind gust speed)